Regional Weather Roundup
Issued by NWS

Home | Current Version | Previous Version | Text Only | Print | Product List | Glossary Off
Versions: 1 2 3 4 5 6 7 8 9 10 11 12 13 14 15 16 17 18 19 20 21 22 23 24 25 26 27

000
ASUS45 KCYS 162110
RWRWY

WYOMING REGIONAL WEATHER ROUNDUP
NATIONAL WEATHER SERVICE CHEYENNE WY
300 PM MDT WED APR 16 2014

NOTE:  "FAIR" INDICATES FEW OR NO CLOUDS BELOW 12,000 FEET
WITH NO SIGNIFICANT WEATHER AND/OR OBSTRUCTIONS TO VISIBILITY.

WYZ001-162200-
YELLOWSTONE NATIONAL PARK

CITY           SKY/WX    TMP DP  RH WIND       PRES   REMARKS
LK YELLOWSTONE   N/A     32  16  51 VRB5      30.00R WCI  27
W YELLOWSTONE  NOT AVBL

$$
WYZ002>013-054>058-071-098>099-162200-
NORTHERN WYOMING

CITY           SKY/WX    TMP DP  RH WIND       PRES   REMARKS
JACKSON        PTSUNNY   41  14  33 MISG      29.99F
CODY           CLOUDY    45  25  45 NE7       29.94F
GREYBULL       MOSUNNY   51  24  34 NW10G20   29.96R
WORLAND        CLOUDY    48  22  35 NW12      29.96S
SHERIDAN       CLOUDY    40  31  70 SW12      29.99R WCI  33
BUFFALO        LGT SNOW  36  31  82 VRB3      30.01R
GILLETTE       MOSUNNY   47  24  40 N15       29.97R
HULETT         FAIR      45  27  49 N7G16     29.99
NEWCASTLE      FAIR      46  25  42 NW9       29.97

$$
WYZ014>020-022>026-101>103-162200-
CENTRAL WYOMING

CITY           SKY/WX    TMP DP  RH WIND       PRES   REMARKS
BIG PINEY      MOSUNNY   44   9  23 N13G21    29.98F
PINEDALE       CLEAR     37  16  41 NW15G21   30.00S WCI  28
DUBOIS         FAIR      39  12  33 NW14G23   29.94F WCI  31
LANDER         MOSUNNY   48  19  31 CALM      29.92F
RIVERTON       CLOUDY    46  18  32 CALM      29.95F
CASPER         MOSUNNY   41  28  60 CALM      29.97F
DOUGLAS        MOSUNNY   46  26  45 NW8       29.98F

$$
WYZ021-027>030-104>119-162200-
SOUTHERN WYOMING

CITY           SKY/WX    TMP DP  RH WIND       PRES   REMARKS
EVANSTON       MOSUNNY   46   7  20 W12G20    29.99F
KEMMERER       CLEAR     45   7  21 W14       29.98F
FORT BRIDGER   FAIR      50   9  19 W8G22     29.99F
ROCK SPRINGS   SUNNY     49   0  13 W10G20    29.96F
DIXON          FAIR      49   8  19 SW8       29.99F
RAWLINS        PTSUNNY   47  11  23 SW16G24   29.97S
SARATOGA       FAIR      43  12  28 W13       29.98S
LARAMIE        CLOUDY    40  19  43 NW10      29.93S WCI  33
CHEYENNE       MOSUNNY   42  27  55 N15G25    29.95F
TORRINGTON     MOSUNNY   49  22  34 NW15G23   29.95S
PINE BLUFFS    FAIR      50  25  37 N16G22    29.96F

$$



USA.gov is the U.S. government's official web portal to all federal, state and local government web resources and services.